weather.gov     
National Weather Service

Regional Weather Roundup
NWS Homepage
This page is being discontinued on March 12, 2014.
The same data is available at this site. Please update your bookmarks.
Thank you, and we apologize for the inconvenience.
Please send an email to SR-SRH.Webmaster@noaa.gov with any concerns.


Current Version
Previous Version:    01  02  03  04  05  06  07  08  09  10  11  12  13  14  15  16  17  18  19  20  21  22  23  24  25  26  27  28  29  30  
   31  32  33  34  35  36  37  38  39  40  41  42  43  44  45  46  47  48  49  50  51  52  53  
[Printable]
153
ASUS41 KCTP 020710
RWRCTP

REGIONAL WEATHER ROUNDUP
NATIONAL WEATHER SERVICE STATE COLLEGE PA
300 AM EDT TUE SEP 02 2014

Note: "fair" indicates few or no clouds below 12,000 feet with no
significant weather and/or obstructions to visibility.

* = STATION THAT DOES NOT REPORT PRECIPITATION /E.G. RAIN...SNOW...ETC/
    THUNDER OR FOG.

PAZ002>004-007>009-013>016-020>023-029>032-020800-
WESTERN PENNSYLVANIA

CITY           SKY/WX    TMP DP  RH WIND       PRES   REMARKS
ERIE           PTCLDY    75  69  81 S13       29.87S
MEADVILLE      CLOUDY    72  69  90 SW9       29.93F
FRANKLIN*      MOCLDY    70  66  88 SW10      29.97S
NEW CASTLE     FAIR      71  70  97 CALM      29.95F
BEAVER COUNTY  NOT AVBL
BUTLER*        PTCLDY    72  66  83 SW7       29.98F
PITTSBURGH INT MOCLDY    73  69  87 SW7       29.96F
PITTSBURGH     MOCLDY    73  67  81 SW9       29.97S
INDIANA*       CLOUDY    72  68  88 SW7       30.02S
LATROBE        PTCLDY    73  70  88 S9        29.99F
WASHINGTON CO* PTCLDY    72  66  83 SW6       29.99S
$$

PAZ004>006-010>012-017>019-024>028-033>037-041-042-045-046-049>053-020800-
CENTRAL PENNSYLVANIA

CITY           SKY/WX    TMP DP  RH WIND       PRES   REMARKS
BRADFORD       CLOUDY    70  68  93 SW8       29.97S
DUBOIS         CLOUDY    70  69  97 SW10      29.97S
CLEARFIELD     CLOUDY    70  69  97 SW6       29.98S
JOHNSTOWN      MOCLDY    69  65  86 SW7       30.03F
ALTOONA        CLEAR     73  67  81 SW8       30.00S
STATE COLLEGE  MOCLDY    69  67  93 S3        29.96F
WILLIAMSPORT   CLOUDY    70  67  90 CALM      29.91S
SELINSGROVE    CLEAR     68  67  96 SW3       29.93S FOG
FT INDIANTOWN  CLEAR     70  70 100 W1        29.94S
CAPITAL CITY   PTCLDY    75  71  87 W7        29.93F
HARRISBURG     PTCLDY    78  72  81 VRB3      29.92F
YORK           CLEAR     74  69  85 W3        29.95F
$$

PAZ038>040-043-044-047-048-054-055-060>062-067>071-020800-
EASTERN PENNSYLVANIA

CITY           SKY/WX    TMP DP  RH WIND       PRES   REMARKS
SCRANTON       CLEAR     71  67  87 CALM      29.93F
MOUNT POCONO   CLEAR     68  66  93 W5        29.99F
ALLENTOWN      CLEAR     71  69  93 CALM      29.94F
QUAKERTOWN*    SUNNY     70  68  94 CALM      29.95F
READING        MOCLDY    74  71  91 CALM      29.92F
LANCASTER      CLEAR     71  70  96 CALM      29.94F FOG
COATESVILLE    MOSUNNY   73  73 100 SW3       29.97S
POTTSTOWN      PTCLDY    72  71  97 CALM      29.95F FOG
BLUE BELL      PTCLDY    72  72 100 CALM      29.93S
DOYLESTOWN     CLEAR     72  72 100 S3        29.94S
WILLOW GROVE   NOT AVBL
NORTH PHILA    PTCLDY    75  71  87 CALM      29.95F
PHILADELPHIA   PTCLDY    78  74  87 SW8       29.94F
$$




U.S. Dept. of Commerce
NOAA National Weather Service
1325 East West Highway
Silver Spring, MD 20910
E-mail: w-nws.webmaster@noaa.gov
Page last modified: May 16, 2007
NATIONAL WEATHER SERVICE: for Safety, for Work, for Fun - FOR LIFE